Starlink 4783

operational
NORAD ID: 53835 Int'l Des: 2022-114 Owner: SPXS Country: US Constellation: starlink
LEOCIRCULAR

关于 Starlink 4783

正在加载描述...

实时位置

正在加载3D地球...

即将过境

高度历史

Altitude vs Time

uPlot chart will show altitude changes over time

两行轨道根数

1 53835U 22114T 26061.13337854 .00000278 00000-0 35552-4 0 9994
2 53835 53.2195 337.8305 0001281 94.7538 265.3600 15.08854843191692
Epoch: Mar 2, 2026 • Age: 38 hours

当前状态

高度 559.2 km
速度 7.58 km/s
星下点 -53.37°S, 126.33°W
发射日期 Sep 19, 2022
运行时间 3.4 years
类型 internet

技术详情

分类 Payload
质量 305.00 kg
干质量 290.00 kg
总质量 305.00 kg
长度 0.20 m
直径 2.80 m
跨度 9.00 m
形状 Box + pan
制造商 SPXS
平台类型 Starlink
阶段状态 In Orbit
所有者/国家 SPXS/US

大型星座

Loading constellations...